Altoona, PA

6:07 AM EDT on August 20, 2019 (GMT -0400)
Altoona-Blair County

Weather History for KAOO - May, 2019

Change the Weather History Date:

Monday, May 20, 2019

  Actual Average Record
Temperature  
Mean Temperature 69 °F -  
Max Temperature 78 °F - 92 °F (1996)
Min Temperature 59 °F - 31 °F (2002)
Cooling Degree Days 4    
Growing Degree Days 19 (Base 50)    
Moisture  
Dew Point 57 °F    
Average Humidity 69    
Maximum Humidity 90    
Minimum Humidity 42    
Precipitation  
Precipitation 0.03 in - 1.30 in (1986)
Sea Level Pressure  
Sea Level Pressure 29.87 in    
Wind  
Wind Speed 11 mph (WSW)    
Max Wind Speed 23 mph    
Max Gust Speed 31 mph    
Visibility 10 miles    
Events Rain    
T = Trace of Precipitation, MM = Missing Value Source: NWS Daily Summary

Daily Weather History Graph

Daily Weather History Graph

Search for Another Location

Airport or City:

Astronomy

May. 20, 2019 Rise Set
Actual Time 5:53 AM EDT 8:27 PM EDT
Civil Twilight 5:21 AM EDT 8:58 PM EDT
Nautical Twilight 4:42 AM EDT 9:37 PM EDT
Astronomical Twilight 3:59 AM EDT 10:21 PM EDT
Moon 10:26 PM EDT 7:20 AM EDT
Length of Visible Light 15h 36m
Length of Day
14h 33m
Waning Gibbous, 96% of the Moon is Illuminated
May 20
Waning Gibbous
May 26
Last Quarter
Jun 3
New
Jun 10
First Quarter
Jun 17
Full

Hourly Weather History & Observations

Time (EDT) Temp. Dew Point Humidity Pressure Visibility Wind Dir Wind Speed Gust Speed Precip Events Conditions
12:53 AM 68.0 °F 62.1 °F 81% 29.84 in 10.0 mi SSW 10.4 mph - N/A   Clear
1:53 AM 66.9 °F 60.1 °F 79% 29.84 in 10.0 mi WSW 6.9 mph - N/A   Mostly Cloudy
2:53 AM 66.0 °F 63.0 °F 90% 29.87 in 10.0 mi West 5.8 mph - 0.02 in Rain Light Rain
3:00 AM 66.0 °F 63.0 °F 90% 29.90 in 10.0 mi Variable 5.8 mph - 0.00 in Rain Light Rain
3:09 AM 64.9 °F 62.1 °F 90% 29.92 in 10.0 mi West 6.9 mph - 0.00 in   Overcast
3:29 AM 64.9 °F 62.1 °F 90% 29.89 in 6.0 mi SE 5.8 mph - 0.01 in Rain Light Rain
3:53 AM 64.9 °F 61.0 °F 87% 29.86 in 10.0 mi South 5.8 mph - 0.01 in   Mostly Cloudy
4:51 AM 64.4 °F 60.8 °F 88% 29.88 in 10.0 mi SSW 8.1 mph - N/A   Mostly Cloudy
4:53 AM 64.0 °F 61.0 °F 90% 29.86 in 10.0 mi SSW 10.4 mph - N/A   Mostly Cloudy
5:09 AM 63.0 °F 60.1 °F 90% 29.88 in 10.0 mi SSW 8.1 mph - N/A   Scattered Clouds
5:53 AM 64.0 °F 60.1 °F 87% 29.86 in 10.0 mi South 9.2 mph - N/A   Clear
6:53 AM 66.0 °F 62.1 °F 87% 29.86 in 10.0 mi South 6.9 mph - N/A   Clear
7:53 AM 69.1 °F 61.0 °F 75% 29.84 in 10.0 mi WSW 17.3 mph 26.5 mph N/A   Clear
8:53 AM 71.1 °F 61.0 °F 70% 29.84 in 10.0 mi West 21.9 mph 29.9 mph N/A   Clear
9:53 AM 72.0 °F 60.1 °F 66% 29.86 in 10.0 mi WSW 15.0 mph 24.2 mph N/A   Mostly Cloudy
10:53 AM 71.1 °F 59.0 °F 66% 29.86 in 10.0 mi WSW 16.1 mph 26.5 mph N/A   Mostly Cloudy
11:53 AM 72.0 °F 57.0 °F 59% 29.85 in 10.0 mi SW 15.0 mph 28.8 mph N/A   Mostly Cloudy
12:53 PM 77.0 °F 57.0 °F 50% 29.86 in 10.0 mi WNW 19.6 mph 28.8 mph N/A   Partly Cloudy
1:53 PM 75.0 °F 55.9 °F 51% 29.86 in 10.0 mi West 16.1 mph 26.5 mph N/A   Scattered Clouds
2:53 PM 77.0 °F 54.0 °F 45% 29.84 in 10.0 mi West 21.9 mph 28.8 mph N/A   Scattered Clouds
3:53 PM 75.0 °F 51.1 °F 43% 29.84 in 10.0 mi West 20.7 mph 31.1 mph N/A   Partly Cloudy
4:53 PM 75.9 °F 51.1 °F 42% 29.83 in 10.0 mi West 17.3 mph - N/A   Mostly Cloudy
5:53 PM 73.9 °F 52.0 °F 46% 29.83 in 10.0 mi West 21.9 mph 26.5 mph N/A   Mostly Cloudy
6:53 PM 73.0 °F 53.1 °F 49% 29.84 in 10.0 mi West 23.0 mph 28.8 mph N/A   Mostly Cloudy
7:53 PM 69.1 °F 48.9 °F 49% 29.86 in 10.0 mi WNW 13.8 mph - N/A   Clear
8:53 PM 66.0 °F 48.9 °F 54% 29.90 in 10.0 mi NW 13.8 mph 24.2 mph N/A   Clear
9:53 PM 63.0 °F 48.9 °F 60% 29.93 in 10.0 mi WNW 13.8 mph 24.2 mph N/A   Clear
10:53 PM 61.0 °F 48.9 °F 64% 29.96 in 10.0 mi NNW 12.7 mph - N/A   Overcast
11:53 PM 59.0 °F 46.9 °F 64% 29.97 in 10.0 mi NW 13.8 mph - N/A   Overcast